QPF
0.00 0.01 0.01 0.01 0.01 0.01 0.01 0.01 0.02 0.02 0.02 0.02 0.02 0.02 0.01 0.02 0.03 0.04 0.05 0.08 0.12 0.14 0.12 0.09 0.06 0.03 0.01 0.00 0.00 0.00 0.01 0.00 0.00 0.00 0.00 0.00 0.00 0.00 0.00 0.00 0.00 0.00 0.00
0.00 0.00 0.01 0.01 0.01 0.01 0.01 0.01 0.01 0.02 0.02 0.02 0.02 0.02 0.02 0.02 0.02 0.02 0.03 0.03 0.05 0.08 0.11 0.12 0.10 0.07 0.03 0.01 0.01 0.00 0.00 0.00 0.00 0.00 0.00 0.00 0.00 0.00 0.00 0.00 0.00 0.00 0.00
0.00 0.00 0.00 0.01 0.01 0.01 0.01 0.01 0.02 0.01 0.01 0.01 0.02 0.02 0.02 0.03 0.02 0.01 0.02 0.02 0.03 0.05 0.08 0.09 0.09 0.08 0.06 0.03 0.02 0.01 0.01 0.01 0.01 0.01 0.01 0.01 0.00 0.00 0.00 0.00 0.00 0.00 0.00
0.00 0.00 0.00 0.00 0.00 0.01 0.01 0.01 0.01 0.01 0.01 0.01 0.01 0.01 0.01 0.02 0.02 0.02 0.02 0.02 0.02 0.03 0.04 0.07 0.08 0.08 0.08 0.06 0.04 0.03 0.01 0.01 0.01 0.01 0.01 0.01 0.01 0.01 0.00 0.00 0.00 0.00 0.00
0.00 0.00 0.00 0.00 0.00 0.00 0.00 0.01 0.01 0.01 0.01 0.01 0.01 0.01 0.02 0.02 0.02 0.02 0.02 0.02 0.02 0.02 0.02 0.03 0.04 0.06 0.07 0.07 0.07 0.07 0.04 0.02 0.01 0.01 0.01 0.01 0.00 0.00 0.01 0.00 0.00 0.00 0.00
0.00 0.00 0.00 0.00 0.00 0.00 0.00 0.00 0.00 0.01 0.01 0.01 0.01 0.01 0.01 0.02 0.02 0.01 0.02 0.02 0.02 0.02 0.03 0.03 0.02 0.02 0.03 0.04 0.06 0.07 0.07 0.05 0.02 0.01 0.00 0.00 0.01 0.00 0.01 0.01 0.00 0.00 0.00
0.00 0.00 0.00 0.00 0.00 0.00 0.00 0.00 0.00 0.01 0.01 0.01 0.01 0.01 0.01 0.01 0.01 0.02 0.02 0.02 0.02 0.02 0.02 0.02 0.03 0.02 0.02 0.02 0.03 0.04 0.06 0.06 0.06 0.03 0.01 0.01 0.00 0.00 0.00 0.01 0.00 0.00 0.00
0.00 0.00 0.00 0.00 0.00 0.00 0.00 0.00 0.00 0.01 0.01 0.01 0.01 0.01 0.01 0.00 0.01 0.01 0.02 0.02 0.02 0.01 0.02 0.01 0.02 0.02 0.02 0.02 0.02 0.03 0.03 0.03 0.03 0.04 0.03 0.02 0.01 0.01 0.00 0.00 0.01 0.01 0.00
0.00 0.00 0.00 0.00 0.00 0.00 0.00 0.00 0.00 0.01 0.01 0.02 0.02 0.01 0.01 0.01 0.01 0.01 0.01 0.02 0.02 0.02 0.02 0.01 0.01 0.01 0.02 0.02 0.01 0.02 0.02 0.02 0.02 0.02 0.02 0.03 0.03 0.02 0.02 0.01 0.01 0.01 0.01
0.01 0.00 0.00 0.00 0.00 0.00 0.00 0.00 0.00 0.01 0.01 0.02 0.02 0.01 0.01 0.01 0.01 0.01 0.01 0.01 0.02 0.02 0.02 0.01 0.01 0.00 0.00 0.01 0.01 0.01 0.01 0.01 0.01 0.01 0.01 0.01 0.02 0.02 0.03 0.03 0.02 0.02 0.02
0.00 0.01 0.00 0.00 0.00 0.00 0.00 0.00 0.00 0.00 0.01 0.02 0.02 0.02 0.01 0.01 0.01 0.01 0.01 0.01 0.01 0.01 0.01 0.01 0.01 0.00 0.00 0.00 0.00 0.00 0.00 0.00 0.01 0.01 0.01 0.01 0.01 0.01 0.02 0.02 0.02 0.03 0.03
0.00 0.01 0.00 0.00 0.00 0.00 0.00 0.00 0.00 0.00 0.01 0.01 0.02 0.02 0.01 0.01 0.01 0.00 0.01 0.01 0.01 0.01 0.01 0.01 0.01 0.01 0.00 0.00 0.00 0.00 0.00 0.00 0.01 0.01 0.01 0.01 0.00 0.00 0.01 0.01 0.01 0.02 0.02
0.01 0.00 0.00 0.00 0.00 0.00 0.00 0.00 0.00 0.00 0.00 0.01 0.01 0.01 0.01 0.01 0.01 0.01 0.01 0.01 0.01 0.01 0.01 0.01 0.01 0.01 0.01 0.00 0.01 0.01 0.01 0.01 0.01 0.01 0.01 0.01 0.01 0.01 0.01 0.01 0.01 0.01 0.01
0.01 0.00 0.00 0.00 0.00 0.00 0.00 0.00 0.00 0.00 0.00 0.00 0.01 0.02 0.01 0.01 0.01 0.02 0.01 0.01 0.01 0.01 0.02 0.02 0.02 0.01 0.01 0.01 0.01 0.01 0.00 0.01 0.01 0.01 0.01 0.01 0.01 0.01 0.01 0.01 0.01 0.01 0.01
0.01 0.01 0.00 0.00 0.00 0.00 0.00 0.00 0.00 0.00 0.00 0.00 0.01 0.02 0.02 0.02 0.02 0.02 0.02 0.01 0.01 0.01 0.01 0.02 0.03 0.02 0.02 0.02 0.02 0.01 0.00 0.00 0.00 0.00 0.00 0.00 0.00 0.01 0.01 0.01 0.01 0.01 0.01
0.01 0.01 0.00 0.00 0.00 0.00 0.00 0.00 0.00 0.00 0.00 0.01 0.00 0.01 0.01 0.02 0.02 0.01 0.01 0.01 0.01 0.01 0.01 0.01 0.02 0.03 0.03 0.03 0.03 0.02 0.01 0.00 0.00 0.00 0.00 0.00 0.00 0.00 0.01 0.01 0.01 0.01 0.01
0.00 0.00 0.00 0.00 0.00 0.00 0.00 0.00 0.00 0.00 0.01 0.01 0.01 0.00 0.00 0.00 0.01 0.01 0.01 0.01 0.01 0.01 0.01 0.01 0.02 0.02 0.03 0.03 0.03 0.03 0.01 0.00 0.00 0.00 0.00 0.00 0.00 0.00 0.00 0.00 0.01 0.01 0.01
0.00 0.00 0.00 0.01 0.01 0.01 0.00 0.00 0.01 0.01 0.01 0.01 0.01 0.01 0.00 0.00 0.00 0.00 0.00 0.01 0.01 0.01 0.01 0.01 0.02 0.02 0.02 0.02 0.02 0.02 0.02 0.01 0.00 0.00 0.00 0.00 0.00 0.00 0.00 0.01 0.01 0.00 0.00
0.00 0.00 0.00 0.01 0.01 0.01 0.01 0.01 0.01 0.01 0.01 0.01 0.01 0.00 0.00 0.00 0.00 0.00 0.00 0.00 0.01 0.01 0.00 0.01 0.01 0.02 0.02 0.02 0.02 0.01 0.01 0.01 0.00 0.00 0.00 0.00 0.00 0.00 0.01 0.01 0.00 0.00 0.00
0.00 0.00 0.00 0.00 0.01 0.01 0.01 0.01 0.01 0.01 0.01 0.00 0.00 0.00 0.00 0.00 0.00 0.00 0.00 0.00 0.00 0.00 0.00 0.01 0.01 0.01 0.01 0.02 0.02 0.02 0.01 0.01 0.01 0.00 0.00 0.00 0.00 0.01 0.01 0.01 0.00 0.01 0.00
0.00 0.00 0.00 0.00 0.00 0.01 0.01 0.01 0.01 0.01 0.01 0.00 0.00 0.00 0.00 0.00 0.00 0.00 0.00 0.00 0.00 0.00 0.00 0.00 0.01 0.01 0.01 0.01 0.02 0.02 0.01 0.01 0.01 0.01 0.00 0.00 0.00 0.01 0.01 0.01 0.01 0.01 0.01
0.00 0.00 0.00 0.00 0.00 0.00 0.00 0.01 0.01 0.01 0.01 0.01 0.00 0.00 0.00 0.00 0.00 0.00 0.00 0.00 0.00 0.00 0.00 0.00 0.01 0.01 0.01 0.01 0.01 0.01 0.01 0.01 0.01 0.01 0.00 0.00 0.01 0.01 0.01 0.01 0.01 0.01 0.01
0.00 0.00 0.00 0.00 0.00 0.00 0.00 0.00 0.01 0.01 0.01 0.01 0.01 0.00 0.00 0.00 0.00 0.00 0.00 0.00 0.00 0.00 0.00 0.00 0.00 0.01 0.01 0.01 0.01 0.01 0.01 0.01 0.02 0.02 0.02 0.02 0.01 0.01 0.01 0.01 0.01 0.01 0.01
0.00 0.00 0.00 0.00 0.00 0.00 0.00 0.00 0.00 0.01 0.01 0.01 0.01 0.00 0.00 0.00 0.00 0.00 0.00 0.00 0.00 0.00 0.00 0.00 0.00 0.00 0.00 0.01 0.01 0.01 0.01 0.01 0.01 0.01 0.02 0.01 0.01 0.01 0.01 0.01 0.01 0.01 0.01
0.00 0.00 0.00 0.00 0.00 0.00 0.00 0.00 0.00 0.00 0.01 0.01 0.01 0.01 0.00 0.00 0.00 0.00 0.00 0.00 0.00 0.00 0.00 0.00 0.00 0.01 0.01 0.01 0.01 0.01 0.01 0.01 0.01 0.01 0.01 0.01 0.01 0.01 0.01 0.01 0.01 0.01 0.01
0.02 0.02 0.01 0.01 0.01 0.00 0.00 0.00 0.00 0.00 0.01 0.01 0.01 0.01 0.01 0.01 0.00 0.00 0.00 0.00 0.00 0.00 0.00 0.00 0.01 0.01 0.01 0.01 0.01 0.01 0.01 0.01 0.01 0.01 0.01 0.01 0.01 0.01 0.01 0.01 0.01 0.01 0.01
MSLP
1010.20 1010.14 1010.10 1010.12 1010.23 1010.49 1010.91 1011.52 1012.31 1013.25 1014.27 1015.30 1016.27 1017.13 1017.81 1018.32 1018.64 1018.82 1018.90 1018.93 1018.95 1018.98 1019.03 1019.10 1019.15 1019.16 1019.10 1018.93 1018.65 1018.27 1017.80 1017.26 1016.72 1016.20 1015.74 1015.37 1015.11 1014.97 1014.94 1015.03 1015.22 1015.49 1015.83
1010.17 1010.11 1010.06 1010.05 1010.12 1010.31 1010.66 1011.20 1011.94 1012.85 1013.86 1014.91 1015.92 1016.82 1017.56 1018.10 1018.46 1018.67 1018.78 1018.83 1018.88 1018.95 1019.06 1019.19 1019.32 1019.40 1019.40 1019.29 1019.06 1018.70 1018.25 1017.73 1017.18 1016.64 1016.16 1015.75 1015.44 1015.23 1015.13 1015.13 1015.22 1015.40 1015.67
1010.22 1010.18 1010.15 1010.14 1010.18 1010.31 1010.60 1011.06 1011.73 1012.57 1013.54 1014.57 1015.58 1016.49 1017.24 1017.81 1018.20 1018.44 1018.57 1018.66 1018.75 1018.88 1019.05 1019.25 1019.44 1019.60 1019.67 1019.63 1019.45 1019.15 1018.74 1018.26 1017.74 1017.23 1016.75 1016.33 1015.99 1015.72 1015.53 1015.42 1015.40 1015.46 1015.62
1010.29 1010.31 1010.33 1010.34 1010.37 1010.48 1010.70 1011.09 1011.67 1012.42 1013.32 1014.29 1015.25 1016.14 1016.89 1017.46 1017.86 1018.13 1018.30 1018.43 1018.57 1018.75 1018.99 1019.25 1019.52 1019.75 1019.89 1019.92 1019.81 1019.58 1019.24 1018.83 1018.38 1017.93 1017.49 1017.10 1016.74 1016.43 1016.17 1015.95 1015.79 1015.71 1015.72
1010.37 1010.47 1010.56 1010.61 1010.66 1010.75 1010.92 1011.23 1011.71 1012.37 1013.17 1014.05 1014.94 1015.77 1016.49 1017.05 1017.46 1017.75 1017.96 1018.13 1018.33 1018.57 1018.87 1019.20 1019.53 1019.83 1020.04 1020.14 1020.11 1019.96 1019.72 1019.40 1019.05 1018.69 1018.33 1017.99 1017.66 1017.33 1017.01 1016.69 1016.40 1016.16 1016.00
1010.45 1010.64 1010.81 1010.93 1011.01 1011.08 1011.21 1011.44 1011.83 1012.37 1013.05 1013.82 1014.62 1015.38 1016.05 1016.59 1017.00 1017.31 1017.55 1017.77 1018.02 1018.32 1018.67 1019.06 1019.46 1019.81 1020.08 1020.25 1020.31 1020.25 1020.11 1019.91 1019.68 1019.43 1019.19 1018.93 1018.65 1018.34 1017.98 1017.59 1017.18 1016.78 1016.45
1010.53 1010.83 1011.08 1011.26 1011.36 1011.43 1011.52 1011.68 1011.96 1012.38 1012.94 1013.59 1014.28 1014.95 1015.56 1016.07 1016.48 1016.80 1017.08 1017.35 1017.65 1018.00 1018.40 1018.84 1019.28 1019.68 1020.01 1020.24 1020.38 1020.41 1020.38 1020.30 1020.20 1020.09 1019.97 1019.82 1019.62 1019.36 1019.01 1018.57 1018.07 1017.55 1017.07
1010.66 1011.03 1011.35 1011.58 1011.71 1011.76 1011.80 1011.89 1012.07 1012.37 1012.80 1013.33 1013.91 1014.50 1015.05 1015.52 1015.91 1016.25 1016.55 1016.86 1017.21 1017.60 1018.05 1018.52 1019.00 1019.43 1019.81 1020.09 1020.29 1020.41 1020.48 1020.52 1020.55 1020.57 1020.59 1020.56 1020.47 1020.29 1019.98 1019.54 1019.01 1018.41 1017.82
1010.85 1011.28 1011.64 1011.89 1012.02 1012.05 1012.04 1012.05 1012.14 1012.33 1012.65 1013.06 1013.53 1014.03 1014.51 1014.95 1015.33 1015.67 1015.99 1016.33 1016.71 1017.13 1017.61 1018.11 1018.61 1019.07 1019.47 1019.80 1020.05 1020.25 1020.40 1020.54 1020.68 1020.83 1020.98 1021.08 1021.11 1021.03 1020.80 1020.42 1019.90 1019.29 1018.64
1011.12 1011.57 1011.93 1012.17 1012.28 1012.28 1012.22 1012.16 1012.16 1012.26 1012.47 1012.78 1013.16 1013.58 1014.00 1014.39 1014.75 1015.09 1015.43 1015.78 1016.17 1016.62 1017.11 1017.62 1018.13 1018.60 1019.02 1019.38 1019.67 1019.91 1020.13 1020.36 1020.60 1020.85 1021.11 1021.33 1021.49 1021.53 1021.41 1021.13 1020.69 1020.12 1019.48
1011.46 1011.88 1012.21 1012.42 1012.48 1012.43 1012.32 1012.20 1012.14 1012.16 1012.29 1012.52 1012.83 1013.18 1013.54 1013.89 1014.23 1014.56 1014.89 1015.25 1015.64 1016.09 1016.57 1017.08 1017.58 1018.06 1018.49 1018.85 1019.17 1019.45 1019.72 1019.99 1020.30 1020.64 1020.98 1021.32 1021.58 1021.75 1021.76 1021.61 1021.28 1020.82 1020.25
1011.80 1012.17 1012.44 1012.59 1012.60 1012.51 1012.35 1012.19 1012.08 1012.06 1012.13 1012.31 1012.56 1012.85 1013.17 1013.49 1013.80 1014.10 1014.41 1014.76 1015.14 1015.57 1016.03 1016.53 1017.01 1017.48 1017.90 1018.27 1018.60 1018.89 1019.19 1019.50 1019.85 1020.24 1020.65 1021.06 1021.43 1021.71 1021.85 1021.84 1021.66 1021.33 1020.89
1012.10 1012.38 1012.57 1012.65 1012.61 1012.48 1012.30 1012.12 1011.99 1011.95 1012.00 1012.14 1012.36 1012.62 1012.90 1013.18 1013.46 1013.74 1014.03 1014.34 1014.70 1015.09 1015.53 1015.99 1016.45 1016.89 1017.30 1017.66 1017.99 1018.29 1018.60 1018.93 1019.30 1019.71 1020.17 1020.63 1021.07 1021.45 1021.71 1021.84 1021.81 1021.63 1021.33
1012.26 1012.45 1012.56 1012.57 1012.49 1012.34 1012.16 1011.98 1011.87 1011.83 1011.88 1012.01 1012.21 1012.45 1012.71 1012.97 1013.22 1013.47 1013.73 1014.01 1014.33 1014.68 1015.07 1015.49 1015.91 1016.32 1016.70 1017.05 1017.37 1017.67 1017.98 1018.31 1018.69 1019.11 1019.59 1020.08 1020.57 1021.02 1021.37 1021.61 1021.72 1021.68 1021.53
1012.23 1012.33 1012.37 1012.33 1012.23 1012.08 1011.91 1011.77 1011.69 1011.68 1011.75 1011.90 1012.10 1012.33 1012.57 1012.81 1013.05 1013.27 1013.50 1013.74 1014.02 1014.33 1014.66 1015.03 1015.40 1015.77 1016.12 1016.45 1016.75 1017.05 1017.35 1017.68 1018.05 1018.48 1018.95 1019.46 1019.97 1020.46 1020.89 1021.22 1021.43 1021.52 1021.49
1011.97 1012.00 1011.99 1011.93 1011.83 1011.70 1011.57 1011.48 1011.45 1011.48 1011.58 1011.75 1011.96 1012.19 1012.43 1012.66 1012.88 1013.08 1013.29 1013.50 1013.73 1014.00 1014.28 1014.59 1014.91 1015.23 1015.54 1015.84 1016.12 1016.41 1016.70 1017.02 1017.39 1017.81 1018.28 1018.79 1019.32 1019.83 1020.30 1020.69 1020.98 1021.16 1021.22
1011.51 1011.49 1011.45 1011.39 1011.31 1011.22 1011.15 1011.11 1011.13 1011.20 1011.34 1011.52 1011.74 1011.98 1012.21 1012.44 1012.65 1012.85 1013.04 1013.23 1013.44 1013.65 1013.89 1014.14 1014.41 1014.68 1014.94 1015.20 1015.46 1015.73 1016.02 1016.34 1016.70 1017.12 1017.59 1018.10 1018.63 1019.16 1019.65 1020.08 1020.42 1020.66 1020.79
1010.88 1010.84 1010.81 1010.76 1010.72 1010.68 1010.66 1010.67 1010.73 1010.84 1010.99 1011.18 1011.40 1011.64 1011.88 1012.10 1012.32 1012.52 1012.70 1012.89 1013.06 1013.25 1013.44 1013.65 1013.85 1014.07 1014.29 1014.51 1014.74 1014.99 1015.27 1015.59 1015.97 1016.39 1016.86 1017.38 1017.92 1018.45 1018.96 1019.41 1019.79 1020.07 1020.25
1010.17 1010.14 1010.12 1010.11 1010.10 1010.11 1010.14 1010.19 1010.27 1010.39 1010.54 1010.72 1010.93 1011.15 1011.38 1011.61 1011.82 1012.03 1012.22 1012.41 1012.58 1012.74 1012.90 1013.06 1013.22 1013.38 1013.55 1013.74 1013.94 1014.18 1014.46 1014.78 1015.16 1015.60 1016.09 1016.62 1017.17 1017.72 1018.25 1018.72 1019.12 1019.44 1019.66
1009.46 1009.44 1009.45 1009.47 1009.51 1009.55 1009.61 1009.67 1009.75 1009.86 1009.98 1010.14 1010.31 1010.51 1010.72 1010.94 1011.16 1011.38 1011.58 1011.77 1011.95 1012.10 1012.24 1012.37 1012.48 1012.60 1012.73 1012.89 1013.07 1013.29 1013.57 1013.90 1014.30 1014.76 1015.27 1015.81 1016.39 1016.96 1017.51 1018.01 1018.44 1018.79 1019.05
1008.80 1008.80 1008.84 1008.89 1008.95 1009.01 1009.08 1009.13 1009.19 1009.26 1009.34 1009.44 1009.57 1009.72 1009.91 1010.11 1010.33 1010.56 1010.78 1010.98 1011.16 1011.32 1011.45 1011.55 1011.64 1011.73 1011.83 1011.96 1012.13 1012.35 1012.63 1012.97 1013.39 1013.87 1014.40 1014.97 1015.57 1016.17 1016.75 1017.28 1017.75 1018.14 1018.44
1008.21 1008.23 1008.28 1008.35 1008.43 1008.49 1008.54 1008.57 1008.58 1008.60 1008.61 1008.65 1008.72 1008.83 1008.97 1009.16 1009.37 1009.60 1009.83 1010.05 1010.24 1010.40 1010.53 1010.62 1010.70 1010.78 1010.87 1010.99 1011.15 1011.37 1011.66 1012.03 1012.46 1012.96 1013.52 1014.11 1014.73 1015.36 1015.96 1016.53 1017.04 1017.48 1017.83
1007.67 1007.70 1007.76 1007.83 1007.89 1007.93 1007.95 1007.94 1007.91 1007.86 1007.81 1007.79 1007.80 1007.85 1007.96 1008.12 1008.31 1008.54 1008.77 1008.99 1009.19 1009.36 1009.50 1009.60 1009.68 1009.77 1009.86 1009.99 1010.17 1010.41 1010.72 1011.10 1011.56 1012.08 1012.65 1013.26 1013.89 1014.53 1015.16 1015.76 1016.31 1016.80 1017.21
1007.15 1007.17 1007.21 1007.26 1007.29 1007.30 1007.28 1007.22 1007.13 1007.03 1006.93 1006.85 1006.81 1006.82 1006.89 1007.02 1007.20 1007.41 1007.63 1007.86 1008.06 1008.24 1008.39 1008.51 1008.61 1008.72 1008.84 1009.00 1009.21 1009.48 1009.83 1010.24 1010.72 1011.25 1011.83 1012.45 1013.09 1013.73 1014.37 1014.98 1015.56 1016.09 1016.56
1006.59 1006.57 1006.57 1006.57 1006.56 1006.53 1006.46 1006.35 1006.23 1006.09 1005.95 1005.84 1005.77 1005.76 1005.80 1005.91 1006.06 1006.26 1006.47 1006.69 1006.89 1007.07 1007.23 1007.37 1007.51 1007.66 1007.83 1008.04 1008.30 1008.63 1009.01 1009.46 1009.96 1010.51 1011.09 1011.70 1012.33 1012.97 1013.60 1014.22 1014.81 1015.37 1015.88
1005.93 1005.86 1005.79 1005.73 1005.66 1005.57 1005.45 1005.32 1005.17 1005.01 1004.87 1004.76 1004.69 1004.67 1004.71 1004.80 1004.94 1005.12 1005.31 1005.51 1005.71 1005.89 1006.07 1006.24 1006.41 1006.61 1006.85 1007.13 1007.46 1007.85 1008.29 1008.78 1009.31 1009.87 1010.45 1011.06 1011.66 1012.28 1012.89 1013.49 1014.09 1014.65 1015.19
Thickness
5591 5590 5590 5589 5588 5588 5588 5589 5589 5588 5587 5585 5583 5582 5581 5580 5580 5580 5580 5580 5581 5580 5580 5580 5579 5579 5578 5578 5578 5577 5575 5573 5573 5572 5572 5573 5573 5572 5571 5570 5570 5569 5569
5581 5582 5583 5582 5582 5582 5582 5582 5583 5582 5581 5580 5578 5576 5575 5574 5574 5573 5573 5573 5573 5573 5573 5572 5572 5570 5570 5569 5569 5568 5566 5564 5563 5561 5561 5562 5563 5563 5562 5561 5561 5560 5559
5575 5576 5576 5577 5576 5576 5576 5578 5576 5576 5575 5573 5571 5569 5567 5566 5565 5565 5565 5565 5565 5565 5565 5565 5564 5563 5562 5561 5561 5560 5559 5556 5553 5552 5551 5550 5552 5551 5553 5551 5551 5550 5549
5568 5569 5571 5571 5570 5570 5570 5569 5569 5568 5567 5566 5564 5563 5563 5561 5560 5559 5558 5558 5558 5558 5558 5558 5557 5556 5555 5553 5552 5552 5551 5548 5545 5542 5541 5540 5540 5539 5541 5541 5540 5540 5540
5561 5563 5565 5565 5564 5563 5562 5561 5561 5560 5559 5558 5557 5557 5556 5555 5552 5551 5551 5550 5550 5550 5550 5550 5549 5548 5547 5545 5544 5542 5542 5540 5538 5535 5532 5530 5528 5527 5527 5530 5530 5530 5530
5554 5556 5557 5557 5556 5555 5554 5553 5552 5551 5550 5550 5549 5549 5548 5546 5544 5543 5542 5542 5542 5542 5542 5541 5541 5540 5539 5538 5537 5535 5533 5531 5530 5527 5525 5523 5521 5518 5517 5518 5518 5518 5520
5546 5547 5548 5548 5548 5547 5547 5546 5545 5544 5543 5542 5541 5541 5540 5539 5538 5537 5535 5534 5534 5534 5534 5533 5533 5532 5531 5530 5529 5527 5525 5523 5521 5519 5517 5515 5514 5512 5510 5508 5507 5507 5509
5537 5539 5541 5541 5540 5540 5540 5539 5538 5537 5536 5535 5534 5533 5532 5531 5530 5530 5529 5528 5528 5528 5527 5526 5525 5524 5523 5521 5520 5518 5516 5515 5513 5511 5509 5507 5505 5504 5502 5500 5497 5496 5498
5528 5531 5533 5533 5533 5533 5533 5533 5532 5531 5529 5528 5526 5524 5524 5523 5522 5522 5521 5521 5520 5520 5519 5518 5517 5516 5514 5513 5511 5510 5508 5506 5505 5503 5501 5499 5497 5495 5494 5491 5489 5487 5487
5520 5522 5524 5525 5525 5525 5525 5524 5524 5523 5522 5520 5519 5518 5516 5515 5514 5514 5513 5512 5512 5511 5510 5509 5508 5507 5506 5505 5503 5501 5500 5498 5496 5494 5492 5490 5488 5486 5485 5483 5480 5478 5477
5511 5513 5515 5515 5515 5516 5516 5515 5515 5514 5513 5512 5511 5509 5508 5507 5507 5506 5505 5504 5503 5503 5502 5501 5500 5499 5498 5496 5495 5493 5491 5490 5487 5486 5484 5483 5480 5478 5476 5474 5472 5469 5467
5503 5505 5505 5505 5506 5506 5506 5507 5507 5506 5505 5504 5502 5501 5500 5499 5498 5498 5498 5496 5495 5494 5493 5492 5491 5490 5489 5488 5486 5484 5483 5481 5479 5477 5476 5474 5473 5470 5468 5466 5463 5461 5459
5494 5495 5495 5496 5496 5497 5497 5497 5497 5497 5496 5495 5493 5492 5491 5491 5490 5489 5489 5488 5487 5486 5485 5484 5483 5482 5480 5479 5478 5476 5474 5472 5471 5469 5468 5466 5464 5462 5459 5457 5455 5453 5451
5486 5486 5486 5486 5487 5488 5488 5488 5487 5488 5487 5486 5484 5484 5483 5483 5482 5481 5480 5479 5478 5477 5476 5475 5474 5473 5472 5471 5469 5466 5465 5463 5462 5461 5459 5457 5456 5454 5451 5450 5448 5445 5443
5479 5479 5479 5479 5479 5479 5479 5479 5478 5478 5478 5477 5476 5475 5474 5473 5472 5472 5471 5470 5469 5468 5467 5466 5465 5464 5462 5462 5460 5458 5456 5455 5453 5452 5450 5449 5447 5446 5444 5442 5440 5437 5434
5473 5473 5472 5472 5472 5472 5472 5471 5470 5469 5469 5468 5467 5466 5465 5464 5463 5462 5461 5460 5459 5458 5458 5457 5456 5455 5454 5454 5453 5450 5448 5446 5445 5444 5442 5440 5439 5439 5437 5436 5433 5430 5427
5466 5466 5466 5466 5466 5465 5464 5463 5462 5461 5460 5459 5458 5457 5455 5454 5454 5453 5452 5451 5450 5449 5448 5447 5446 5445 5445 5445 5444 5442 5440 5438 5436 5435 5434 5433 5432 5430 5429 5427 5425 5423 5421
5459 5459 5459 5459 5458 5457 5456 5455 5453 5452 5451 5450 5448 5447 5446 5445 5444 5443 5442 5441 5440 5439 5439 5438 5437 5437 5437 5437 5436 5433 5431 5429 5428 5427 5426 5425 5424 5422 5421 5419 5416 5415 5413
5451 5451 5451 5451 5451 5449 5448 5446 5444 5443 5441 5441 5440 5439 5438 5436 5435 5434 5433 5432 5431 5430 5430 5430 5429 5428 5428 5428 5427 5425 5423 5421 5420 5419 5418 5417 5415 5416 5414 5411 5408 5407 5406
5443 5443 5442 5442 5442 5441 5439 5438 5436 5434 5434 5434 5432 5431 5430 5429 5428 5427 5425 5423 5422 5422 5421 5421 5420 5419 5419 5419 5418 5416 5414 5412 5411 5410 5410 5409 5408 5408 5406 5403 5401 5400 5399
5435 5435 5435 5434 5434 5433 5431 5429 5428 5428 5428 5426 5424 5423 5422 5421 5420 5418 5416 5414 5413 5412 5411 5411 5411 5410 5410 5409 5409 5408 5406 5404 5403 5402 5401 5401 5401 5400 5399 5397 5395 5394 5392
5428 5427 5426 5426 5426 5424 5423 5422 5422 5422 5419 5418 5417 5415 5414 5413 5412 5409 5407 5405 5404 5403 5402 5401 5401 5401 5401 5401 5400 5400 5398 5397 5395 5394 5394 5393 5393 5393 5392 5390 5389 5387 5384
5419 5419 5418 5418 5417 5416 5416 5416 5416 5413 5411 5410 5408 5407 5405 5404 5403 5401 5399 5397 5396 5395 5394 5393 5393 5392 5392 5392 5392 5391 5390 5389 5388 5387 5387 5386 5385 5384 5383 5382 5381 5378 5375
5410 5409 5409 5409 5409 5409 5408 5408 5407 5406 5404 5402 5400 5398 5396 5395 5394 5393 5392 5390 5388 5387 5386 5386 5385 5384 5384 5383 5383 5382 5382 5381 5380 5379 5379 5378 5376 5375 5374 5372 5370 5368 5366
5403 5401 5400 5400 5401 5401 5401 5400 5399 5398 5396 5394 5392 5390 5389 5388 5386 5385 5384 5384 5383 5382 5381 5379 5378 5377 5376 5377 5376 5374 5373 5372 5372 5370 5369 5368 5366 5365 5363 5361 5360 5359 5358
5394 5393 5392 5392 5392 5392 5392 5392 5391 5391 5389 5387 5384 5383 5381 5380 5378 5377 5376 5377 5376 5376 5375 5374 5372 5371 5371 5370 5369 5368 5367 5366 5365 5363 5361 5359 5358 5356 5355 5354 5352 5350 5349